This is the latest recevied weather packets stored in our database for station/object KO4YAW. If no packets are shown the sender has not sent any weather packets the latest 10 day(s).
| Time | Temp. | Humidity | Pressure | Rain* | Wind** | Luminosity | Snow |
|---|---|---|---|---|---|---|---|
| 1778286780 | 20.56° C | 34% | 1014.6 hPa | 0 mm | - | 173 W/m² | - |
| 1778285880 | 21.11° C | 34% | 1014.5 hPa | 0 mm | - | 219 W/m² | - |
| 1778284980 | 21.11° C | 34% | 1014.5 hPa | 0 mm | - | 272 W/m² | - |
| 1778284080 | 21.11° C | 33% | 1014.5 hPa | 0 mm | - | 329 W/m² | - |
| 1778283180 | 21.11° C | 34% | 1014.5 hPa | 0 mm | - | 395 W/m² | - |
| 1778282280 | 20.56° C | 34% | 1014.4 hPa | 0 mm | - | 433 W/m² | - |
| 1778281380 | 20.56° C | 35% | 1014.5 hPa | 0 mm | - | 483 W/m² | - |
| 1778280480 | 21.11° C | 33% | 1014.5 hPa | 0 mm | - | 542 W/m² | - |
| 1778279580 | 21.11° C | 34% | 1014.6 hPa | 0 mm | - | 593 W/m² | - |
| 1778278680 | 21.11° C | 35% | 1014.6 hPa | 0 mm | - | 633 W/m² | - |
| 1778277780 | 20.56° C | 35% | 1014.7 hPa | 0 mm | - | 697 W/m² | - |
| 1778276880 | 20° C | 36% | 1014.9 hPa | 0 mm | - | 744 W/m² | - |
| 1778275980 | 20.56° C | 35% | 1015.1 hPa | 0 mm | - | 791 W/m² | - |
| 1778275080 | 20° C | 35% | 1015 hPa | 0 mm | - | 837 W/m² | - |
| 1778274180 | 19.44° C | 37% | 1015.3 hPa | 0 mm | - | 870 W/m² | - |
| 1778273280 | 19.44° C | 37% | 1015.4 hPa | 0 mm | - | 892 W/m² | - |
| 1778272380 | 19.44° C | 38% | 1015.6 hPa | 0 mm | - | 973 W/m² | - |
| 1778271480 | 18.89° C | 38% | 1015.7 hPa | 0 mm | - | 970 W/m² | - |
| 1778270580 | 18.33° C | 40% | 1015.8 hPa | 0 mm | - | 100 W/m² | - |
| 1778269680 | 18.89° C | 40% | 1015.9 hPa | 0 mm | - | 102 W/m² | - |
| 1778268780 | 18.33° C | 42% | 1016 hPa | 0 mm | - | 103 W/m² | - |
| 1778267880 | 17.22° C | 43% | 1016.2 hPa | 0 mm | - | 105 W/m² | - |
| 1778266980 | 17.22° C | 45% | 1016.3 hPa | 0 mm | - | 105 W/m² | - |
| 1778266080 | 17.22° C | 45% | 1016.4 hPa | 0 mm | - | 106 W/m² | - |
| 1778265180 | 17.22° C | 43% | 1016.4 hPa | 0 mm | - | 106 W/m² | - |
* Rain since midnight (hover to see other rain measurements)
** Current wind speed in m/s (hover to see current wind gust speed)